カタログに戻る

ONEWEB-0653

運用中通信PO
NORAD 55815·PAYLOAD·🇬🇧 United Kingdom

打ち上げ Mar 9, 2023 から Cape Canaveral Space Force Station

Loading…

次のパス (今後24時間)

TLE

最新Source: CelesTrak SupGP

元期: Sep 14, 2026, 21:43 UTC

1 55815C 23029V   26257.90505046  .00002993  00000+0  80824-2 0  2574
2 55815  87.8890 271.8164 0002047  93.0099 304.8522 13.14498517    16

AllMySatでONEWEB-0653をリアルタイム追跡

Download on the App Store